NG7M Weather Reports


time (UTC)temp
F
wind
direction
speed
knots
gust
knots
rain 1hr
in
rain 24hr
in
rain mn
in
humidity
%
barometer
mb
20260502170503 67 192 0.0 0.0 0.00 0.00 0.00 21 1020.3
20260502164003 65 227 0.0 0.0 0.00 0.00 0.00 25 1020.3
20260502163504 65 222 0.0 0.0 0.00 0.00 0.00 24 1020.3
20260502163003 64 233 0.0 0.0 0.00 0.00 0.00 24 1020.3
20260502162504 63 231 0.0 0.0 0.00 0.00 0.00 25 1020.3
20260502162003 63 232 0.0 0.0 0.00 0.00 0.00 25 1020.3
20260502161504 64 207 0.0 0.0 0.00 0.00 0.00 26 1020.3
20260502161004 63 207 0.0 0.0 0.00 0.00 0.00 27 1020.3
20260502160504 62 204 0.0 0.0 0.00 0.00 0.00 29 1020.4
20260502152004 58 134 0.0 0.0 0.00 0.00 0.00 31 1020.5
20260502151503 58 134 0.0 0.0 0.00 0.00 0.00 31 1020.5
20260502151004 57 132 0.0 0.0 0.00 0.00 0.00 32 1020.5
20260502150503 57 132 0.0 0.0 0.00 0.00 0.00 30 1020.5
20260502130503 48 331 0.0 0.0 0.00 0.00 0.00 44 1020.0
20260502123503 45 331 0.0 0.0 0.00 0.00 0.00 49 1019.8
20260502123004 44 92 0.0 0.0 0.00 0.00 0.00 51 1019.8
20260502122503 44 92 0.0 0.0 0.00 0.00 0.00 55 1019.8
20260502122004 43 92 0.0 0.0 0.00 0.00 0.00 56 1019.7
20260502121503 43 92 0.0 0.0 0.00 0.00 0.00 57 1019.7
20260502121004 43 92 0.0 0.0 0.00 0.00 0.00 57 1019.7
20260502115504 44 92 0.0 0.0 0.00 0.00 0.00 56 1019.7
20260502115004 44 92 0.0 0.0 0.00 0.00 0.00 56 1019.7
20260502114504 45 92 0.0 0.0 0.00 0.00 0.00 56 1019.7
20260502114003 45 92 0.0 0.0 0.00 0.00 0.00 56 1019.7
20260502113504 45 92 0.0 0.0 0.00 0.00 0.00 57 1019.7
20260502113004 45 92 0.0 0.0 0.00 0.00 0.00 57 1019.8
20260502112504 45 92 0.0 0.0 0.00 0.00 0.00 58 1019.7
20260502112003 45 90 0.0 0.0 0.00 0.00 0.00 57 1019.7
20260502111504 45 90 0.0 0.0 0.00 0.00 0.00 57 1019.7
20260502111003 45 90 0.0 0.0 0.00 0.00 0.00 56 1019.6
20260502110504 45 90 0.0 0.0 0.00 0.00 0.00 54 1019.5
20260502110004 45 90 0.0 0.0 0.00 0.00 0.00 55 1019.8
20260502105504 45 90 0.0 0.0 0.00 0.00 0.00 55 1019.8
20260502104504 45 90 0.0 0.0 0.00 0.00 0.00 55 1019.8
20260502104003 45 90 0.0 0.0 0.00 0.00 0.00 55 1019.8
20260502103503 45 90 0.0 0.0 0.00 0.00 0.00 55 1019.8
20260502103004 45 90 0.0 0.0 0.00 0.00 0.00 55 1019.8
20260502102503 45 90 0.0 0.0 0.00 0.00 0.00 54 1019.8
20260502102004 46 90 0.0 0.0 0.00 0.00 0.00 53 1019.8
20260502101503 47 90 0.0 0.0 0.00 0.00 0.00 53 1019.8
20260502101004 47 90 0.0 0.0 0.00 0.00 0.00 53 1019.6
20260502100504 47 90 0.0 0.0 0.00 0.00 0.00 52 1019.6
20260502090504 47 138 0.0 0.0 0.00 0.00 0.00 51 1019.6
20260502071504 50 132 0.0 0.0 0.00 0.00 0.00 47 1019.4
20260502071003 50 132 0.0 0.0 0.00 0.00 0.00 47 1019.4
20260502070503 51 132 0.0 0.0 0.00 0.00 0.00 46 1019.4
20260502064504 51 132 0.0 0.0 0.00 0.00 0.00 46 1019.4
20260502064003 51 132 0.0 0.0 0.00 0.00 0.00 46 1019.4
20260502063503 51 133 0.0 0.0 0.00 0.00 0.00 47 1019.4
20260502063003 51 137 0.0 0.0 0.00 0.00 0.00 47 1019.5
20260502062505 51 170 0.0 0.0 0.00 0.00 0.00 47 1019.5
20260502062004 51 202 0.0 0.0 0.00 0.00 0.00 47 1019.5
20260502061505 51 335 0.0 0.0 0.00 0.00 0.00 48 1019.5
20260502061004 51 342 0.0 0.0 0.00 0.00 0.00 48 1019.4
20260502060504 51 214 0.0 0.0 0.00 0.00 0.00 48 1019.5
20260502055504 51 233 0.0 0.0 0.00 0.00 0.00 46 1019.5
20260502055003 53 229 0.0 0.0 0.00 0.00 0.00 42 1019.4
20260502054504 54 77 0.0 0.0 0.00 0.00 0.00 38 1019.4
20260502054004 53 77 0.0 0.0 0.00 0.00 0.00 40 1019.3
20260502053503 54 78 0.0 0.0 0.00 0.00 0.00 40 1019.3
20260502052503 54 77 0.0 0.0 0.00 0.00 0.00 40 1019.3
20260502052004 54 40 0.0 0.0 0.00 0.00 0.00 41 1019.3
20260502051504 54 0 0.0 0.0 0.00 0.00 0.00 40 1019.4
20260502050503 55 79 0.0 0.0 0.00 0.00 0.00 39 1019.3
20260502050004 55 78 0.0 0.0 0.00 0.00 0.00 38 1019.2
20260502045504 55 78 0.0 0.0 0.00 0.00 0.00 37 1019.2
20260502044504 56 0 0.0 0.0 0.00 0.00 0.00 37 1019.3
20260502044004 56 0 0.0 0.0 0.00 0.00 0.00 36 1019.2
20260502043504 55 0 0.0 0.0 0.00 0.00 0.00 38 1019.2
20260502043004 55 0 0.0 0.0 0.00 0.00 0.00 40 1019.2
20260502041504 56 0 0.0 0.0 0.00 0.00 0.00 41 1018.8
20260502041003 56 0 0.0 0.0 0.00 0.00 0.00 42 1018.8
20260502040003 56 0 0.0 0.0 0.00 0.00 0.00 43 1018.7
20260502035504 57 353 0.0 0.0 0.00 0.00 0.00 43 1018.7
20260502035003 57 0 0.0 0.0 0.00 0.00 0.00 43 1018.7
20260502034503 57 351 0.0 0.0 0.00 0.00 0.00 42 1018.7
20260502034004 57 357 0.0 0.0 0.00 0.00 0.00 42 1018.7
20260502033003 57 0 0.0 0.0 0.00 0.00 0.00 40 1018.6
20260502032503 58 346 0.0 0.0 0.00 0.00 0.00 40 1018.5
20260502032004 58 352 0.0 0.0 0.00 0.00 0.00 40 1018.4
20260502031004 59 306 0.0 0.0 0.00 0.00 0.00 38 1018.2
20260502030503 59 306 0.0 0.0 0.00 0.00 0.00 38 1018.2
20260502030004 59 305 0.0 0.0 0.00 0.00 0.00 38 1018.2
20260502025504 59 307 0.0 0.0 0.00 0.00 0.00 38 1018.2
20260502025003 59 306 0.0 0.0 0.00 0.00 0.00 38 1018.2
20260502024504 59 306 0.0 0.0 0.00 0.00 0.00 38 1018.2
20260502024004 59 306 0.0 0.0 0.00 0.00 0.00 38 1018.2
20260502023503 60 306 0.0 0.0 0.00 0.00 0.00 37 1018.0
20260502022503 61 0 0.0 0.0 0.00 0.00 0.00 34 1018.0
20260502022004 61 0 0.0 0.0 0.00 0.00 0.00 32 1017.7
20260502021503 62 0 0.0 0.0 0.00 0.00 0.00 31 1017.7
20260502020004 62 297 0.0 0.0 0.00 0.00 0.00 30 1017.6
20260502015504 62 282 0.0 0.0 0.00 0.00 0.00 30 1017.6
20260502015003 63 266 0.0 0.0 0.00 0.00 0.00 31 1017.7
20260502014504 63 275 0.0 0.0 0.00 0.00 0.00 33 1017.7
20260502014003 63 274 0.0 0.0 0.00 0.00 0.00 31 1017.7
20260502013503 64 273 0.0 0.0 0.00 0.00 0.00 29 1017.7
20260502013004 64 252 0.0 0.0 0.00 0.00 0.00 28 1017.6
20260502012503 65 279 0.0 0.0 0.00 0.00 0.00 27 1017.6
20260502012004 65 259 0.0 0.0 0.00 0.00 0.00 26 1017.6
20260502011503 65 273 0.0 0.0 0.00 0.00 0.00 26 1017.8
20260502011003 65 266 0.0 0.0 0.00 0.00 0.00 25 1017.8
20260502010503 65 274 0.0 0.0 0.00 0.00 0.00 27 1017.8
20260502005503 66 275 0.0 0.0 0.00 0.00 0.00 25 1017.7
20260502005004 66 262 0.0 0.0 0.00 0.00 0.00 26 1017.6
20260502004004 66 262 0.0 0.0 0.00 0.00 0.00 29 1017.7
20260502003504 67 261 0.0 0.0 0.00 0.00 0.00 23 1017.7
20260502003004 67 263 0.0 0.0 0.00 0.00 0.00 22 1017.7
20260502002504 67 308 0.0 0.0 0.00 0.00 0.00 20 1017.7
20260502001503 67 288 0.0 0.0 0.00 0.00 0.00 20 1017.8
20260502001004 67 268 0.0 0.0 0.00 0.00 0.00 21 1017.8
20260502000503 67 272 0.0 0.0 0.00 0.00 0.00 20 1017.8
20260502000003 67 294 0.0 0.0 0.00 0.00 0.00 21 1017.8
20260501235504 67 355 0.0 0.0 0.00 0.00 0.00 19 1017.8
20260501235004 67 322 0.0 0.0 0.00 0.00 0.00 22 1018.1
20260501234504 67 302 0.0 0.0 0.00 0.00 0.00 21 1018.1
20260501234004 67 331 0.0 0.0 0.00 0.00 0.00 20 1018.1
20260501233503 67 321 0.0 0.0 0.00 0.00 0.00 21 1018.1
20260501233004 66 328 0.0 0.0 0.00 0.00 0.00 21 1018.1
20260501232503 67 319 0.0 0.0 0.00 0.00 0.00 21 1018.1
20260501232004 67 330 0.0 0.0 0.00 0.00 0.00 20 1018.1
20260501231503 67 301 0.0 0.0 0.00 0.00 0.00 20 1018.1
20260501231004 66 352 0.0 0.0 0.00 0.00 0.00 20 1018.1
20260501230504 67 310 0.0 0.0 0.00 0.00 0.00 20 1018.2
20260501230004 67 311 0.0 0.0 0.00 0.00 0.00 20 1018.2
20260501225504 66 347 0.0 0.0 0.00 0.00 0.00 20 1018.2
20260501225003 67 311 0.0 0.0 0.00 0.00 0.00 19 1018.2
20260501224004 66 329 0.0 0.0 0.00 0.00 0.00 20 1018.2
20260501223504 66 316 0.0 0.0 0.00 0.00 0.00 20 1018.3
20260501222004 67 335 0.0 0.0 0.00 0.00 0.00 19 1018.5
20260501221504 66 292 0.0 0.0 0.00 0.00 0.00 20 1018.6
20260501221004 66 311 0.0 0.0 0.00 0.00 0.00 20 1018.6
20260501220504 65 325 0.0 0.0 0.00 0.00 0.00 20 1018.7
20260501220003 66 319 0.0 0.0 0.00 0.00 0.00 20 1018.7
20260501215504 66 322 0.0 0.0 0.00 0.00 0.00 21 1018.9
20260501215004 66 323 0.0 0.0 0.00 0.00 0.00 20 1018.9
20260501214504 66 302 0.0 0.0 0.00 0.00 0.00 22 1018.9
20260501214003 65 293 0.0 0.0 0.00 0.00 0.00 23 1019.1
20260501213504 65 306 0.0 0.0 0.00 0.00 0.00 22 1018.8
20260501213003 65 287 0.0 0.0 0.00 0.00 0.00 23 1019.1
20260501212503 65 321 0.0 0.0 0.00 0.00 0.00 23 1019.1
20260501212004 65 310 0.0 0.0 0.00 0.00 0.00 23 1018.8
20260501211504 65 321 0.0 0.0 0.00 0.00 0.00 22 1018.9
20260501211003 65 288 0.0 0.0 0.00 0.00 0.00 22 1018.9
20260501210503 65 316 0.0 0.0 0.00 0.00 0.00 23 1019.3
20260501210003 65 306 0.0 0.0 0.00 0.00 0.00 23 1019.0
20260501205504 65 324 0.0 0.0 0.00 0.00 0.00 21 1019.0
20260501204004 65 298 0.0 0.0 0.00 0.00 0.00 22 1019.3
20260501203504 65 326 0.0 0.0 0.00 0.00 0.00 22 1019.2
20260501203003 64 314 0.0 0.0 0.00 0.00 0.00 24 1019.2
20260501202504 64 282 0.0 0.0 0.00 0.00 0.00 24 1019.2
20260501202003 64 267 0.0 0.0 0.00 0.00 0.00 26 1019.3
20260501201504 64 271 0.0 0.0 0.00 0.00 0.00 26 1019.3
20260501201004 64 301 0.0 0.0 0.00 0.00 0.00 27 1019.3
20260501200503 64 279 0.0 0.0 0.00 0.00 0.00 24 1019.3
20260501200004 64 301 0.0 0.0 0.00 0.00 0.00 25 1019.3
20260501195004 64 266 0.0 0.0 0.00 0.00 0.00 25 1019.4
20260501194503 64 272 0.0 0.0 0.00 0.00 0.00 29 1019.5
20260501194003 63 245 0.0 0.0 0.00 0.00 0.00 26 1019.5
20260501193003 63 246 0.0 0.0 0.00 0.00 0.00 26 1019.5
20260501192503 63 241 0.0 0.0 0.00 0.00 0.00 25 1019.5
20260501192003 63 238 0.0 0.0 0.00 0.00 0.00 27 1019.5
20260501191504 62 251 0.0 0.0 0.00 0.00 0.00 26 1019.9
20260501191003 62 247 0.0 0.0 0.00 0.00 0.00 27 1019.9
20260501190503 62 262 0.0 0.0 0.00 0.00 0.00 25 1019.9
20260501190004 62 240 0.0 0.0 0.00 0.00 0.00 27 1019.9
20260501185504 61 266 0.0 0.0 0.00 0.00 0.00 27 1020.1
20260501185004 62 246 0.0 0.0 0.00 0.00 0.00 27 1020.0
20260501184504 62 281 0.0 0.0 0.00 0.00 0.00 25 1020.0
20260501184004 62 246 0.0 0.0 0.00 0.00 0.00 27 1020.1
20260501183504 62 251 0.0 0.0 0.00 0.00 0.00 26 1020.1
20260501183003 62 234 0.0 0.0 0.00 0.00 0.00 23 1020.1
20260501182504 61 265 0.0 0.0 0.00 0.00 0.00 22 1020.2
20260501181504 61 235 0.0 0.0 0.00 0.00 0.00 23 1020.2
20260501181004 61 234 0.0 0.0 0.00 0.00 0.00 22 1020.2